User: anonymous   Login
Location: Clatteringshaws Loch
(55.0508°N, 4.2860°W)
Time: 14:42:01
(UTC+00:00)
Language:

Sapphire - Orbit

View from above orbital plane
View from above orbital plane
View from above satellite
View from above satellite

Ground track
Ground track

The orbit data is extracted from the following two-line orbital elements,

1 26932U 01043D   16045.05752184  .00000026  00000-0  41976-4 0  9997
2 26932  67.0554 274.8149 0008545 282.3579  77.6566 14.30196458750420
Epoch (UTC): 14 February 2016 01:22:49
Eccentricity: 0.0008545
inclination: 67.0554°
perigee height: 785 km
apogee height: 797 km
right ascension of ascending node: 274.8149°
argument of perigee: 282.3579°
revolutions per day: 14.30196458
mean anomaly at epoch: 77.6566°
orbit number at epoch: 75042

The dashed part of the orbit path shows where the satellite is in the earth's shadow,  

DLR